Location: Brienzwiler
(46.7508°N, 8.1014°E)
Time: 17:02:32
(UTC+00:00)

Cosmos 1766 Rocket - Pass Details

Date: 05 July 2020
Orbit: 606 x 632 km, 82.5° (Epoch: 10 August)

Event Time Altitude Azimuth Distance (km) Brightness Sun altitude
Exits shadow 22:44:23 47° 148° (SSE) 815 3.7 -19.7°
Maximum altitude 22:45:22 62° 96° (E) 700 3.7 -19.8°
Drops below altitude 10° 22:49:44 10° 16° (NNE) 1,998 7.1 -19.9°
Sets 22:52:00 0° 13° (NNE) 2,914 8.2 -20.0°
